Location: Unspecified
(42.3650°N, 71.1030°W)
Time: 22:32:12
(UTC+00:00)

Helios 1A - Pass Details

Date: 02 March 2024
Orbit: 570 x 580 km, 98.3° (Epoch: 30 March)

Event Time Altitude Azimuth Distance (km) Brightness Sun altitude
Rises 23:18:02 0° 9° (N) 2,814 6.3 -8.5°
Reaches altitude 10° 23:20:13 10° 5° (N) 1,911 5.5 -8.9°
Maximum altitude 23:24:17 57° 287° (WNW) 691 3.7 -9.7°
Drops below altitude 10° 23:28:18 10° 209° (SSW) 1,896 5.9 -10.4°
Sets 23:30:28 0° 205° (SSW) 2,790 6.8 -10.8°
